User: anonymous   Login
Location: Caltech
(34.1382°N, 118.1253°W)
Time: 01:28:18
(UTC-07:00)
Language:

Cosmos 1939 Rocket - Orbit

View from above orbital plane
View from above orbital plane
View from above satellite
View from above satellite

Ground track
Ground track

The orbit data is extracted from the following two-line orbital elements,

1 19046U 88032B   15142.10885249  .00001731  00000-0  13775-3 0  9999
2 19046 097.6167 195.1711 0040906 031.9693 328.4001 15.01073468459015
Epoch (UTC): 22 May 2015 02:36:44
Eccentricity: 0.0040906
inclination: 97.6167°
perigee height: 535 km
apogee height: 592 km
right ascension of ascending node: 195.1711°
argument of perigee: 31.9693°
revolutions per day: 15.01073468
mean anomaly at epoch: 328.4001°
orbit number at epoch: 45901

The dashed part of the orbit path shows where the satellite is in the earth's shadow,  

DLR